Ana Sayfa
METAR-TAF:

METAR-TAF

Havaalanları :

Taos Regional Airport

Taos, New Mexico, Amerika Birleşik Devletleri

Enlem: 36-27N, Boylam: 105-40W, yükseklik: 2161 m

Güncel hava durumu gözlemi

Rapor saat 06:56 UTC de 28 dakika önce yapıldı.
Sakin rüzgar
Sıcaklık 6°C
Nem 36%
Basınç 1017 hPa
Görüş mesafesi: 16.1 km
4800 ft yükseklikte az bulutlu
7000 ft yükseklikte parçalı bulutlu
8500 ft yükseklikte çok bulutlu

METAR: KSKX 300656Z AUTO 00000KT 10SM FEW048 SCT070 OVC085 06/M08 A3003 RMK AO2 SLP148 T00611078 401281078

Saat: 01:24 (07:24 UTC)


TAF: eksik

4.000'den fazla havaalanı için hava durumu gözlemleri ve tahminleri (METAR ve TAF raporları).

Kullanılabilir istasyonlar harita üzerinde sarı ve kırmızı noktalarla gösterilir.

İstasyonun adını görmek için fareyi noktanın üzerinde gezdirin.

Sonrasında hava gözlem ve tahminlerini görmek için tıklayın.

Haritayı değiştirmek için: yaklaştırmak için siyah artı işaretli yeşil düğmeye ve uzaklaştırmak için de eksi işaretli düğmeye hızla tıklayın; bitişik haritalar için yeşil okları kullanın.


METAR-TAF: